Regional Weather Roundup
Issued by NWS

Home | Current Version | Previous Version | Graphics & Text | Print | Product List | Glossary On
Versions: 1 2 3 4 5 6 7 8 9 10 11 12 13 14 15 16 17 18 19 20 21 22 23 24 25 26 27 28 29 30 31 32 33 34 35 36 37 38 39 40 41 42 43 44 45 46 47 48 49 50
000
ASUS45 KCYS 241110
RWRWY

WYOMING REGIONAL WEATHER ROUNDUP
NATIONAL WEATHER SERVICE CHEYENNE WY
400 AM MST WED DEC 24 2014

NOTE:  "FAIR" INDICATES FEW OR NO CLOUDS BELOW 12,000 FEET
WITH NO SIGNIFICANT WEATHER AND/OR OBSTRUCTIONS TO VISIBILITY.

WYZ001-241200-
YELLOWSTONE NATIONAL PARK

CITY           SKY/WX    TMP DP  RH WIND       PRES   REMARKS
LK YELLOWSTONE   N/A     16  11  80 CALM      30.04F
W YELLOWSTONE  NOT AVBL

$$
WYZ002>013-054>058-071-098>099-241200-
NORTHERN WYOMING

CITY           SKY/WX    TMP DP  RH WIND       PRES   REMARKS
JACKSON        FAIR       9   7  92 N7        30.10F WCI  -3
CODY           FAIR      37  19  48 SW21G32   29.86F WCI  27
GREYBULL       FAIR      16  12  84 SE3       29.96F
WORLAND        FAIR       7   2  80 SW6       29.95F WCI  -3
SHERIDAN       FAIR      20  13  74 CALM      29.78F
BUFFALO        FAIR      29  11  47 CALM      29.79F
GILLETTE       FAIR      28  13  53 SW14      29.81F WCI  17
HULETT           N/A    N/A N/A N/A MISG        N/A
NEWCASTLE      FAIR      12  10  92 CALM      29.90F

$$
WYZ014>020-022>026-101>103-241200-
CENTRAL WYOMING

CITY           SKY/WX    TMP DP  RH WIND       PRES   REMARKS
BIG PINEY      FAIR       4   1  88 NE5       30.09F WCI  -5
PINEDALE       FAIR       5   3  92 CALM      30.08F
DUBOIS         NOT AVBL
LANDER         FAIR      20   7  57 CALM      29.91F
RIVERTON       FAIR      11   4  73 NE3       29.94F
CASPER         FAIR      22  11  62 SW24G35   29.93F WCI   5
DOUGLAS        FAIR      15   9  76 CALM      29.87F

$$
WYZ021-027>030-104>119-241200-
SOUTHERN WYOMING

CITY           SKY/WX    TMP DP  RH WIND       PRES   REMARKS
EVANSTON       FAIR      13   8  81 SW15      30.14F WCI  -3
FORT BRIDGER   FAIR      23   8  52 SW15      30.14F WCI  10
ROCK SPRINGS   FAIR      20  10  65 W18       30.09F WCI   5
DIXON          FAIR       9   4  79 E9        30.18F WCI  -4
RAWLINS        FAIR      19  10  68 W23G31    30.02F WCI   2
SARATOGA       FAIR      14   5  67 S13G18    30.07F WCI   0
LARAMIE        FAIR      10   2  69 S9        29.95F WCI  -3
CHEYENNE       FAIR      14   3  61 W7        29.92F WCI   4
TORRINGTON     FAIR      10   6  84 E6        29.94F WCI   0
PINE BLUFFS    FAIR      14   9  79 W6        29.95F WCI   5

$$


USA.gov is the U.S. government's official web portal to all federal, state and local government web resources and services.